LOT9WK EPWA-EPPO

Flight info

Callsign LOT9WK
Flight time 0h 35m
Altitude 24000
Route LOLSI DCT DIBLO DCT INDIG L980 MASIV
Aircraft B738/M-SDE2E3FGHIRWXY/LB1

Departure

Time 2026-05-04 12:51
Airport Warsaw Chopin Airport (EPWA)

Arrival

Time 2026-05-04 13:26
Airport Poznań-Ławica Airport (EPPO)
Time Latitude Longitude Altitude Speed Heading
2026-05-04 12:14 52.17093 20.97056 283 ft 0 kts 75°
2026-05-04 12:37 52.17090 20.97037 333 ft 3 kts 75°
2026-05-04 12:37 52.17085 20.97005 332 ft 3 kts 76°
2026-05-04 12:38 52.17080 20.96973 335 ft 3 kts 79°
2026-05-04 12:38 52.17077 20.96941 333 ft 3 kts 92°
2026-05-04 12:38 52.17080 20.96912 333 ft 3 kts 130°
2026-05-04 12:38 52.17086 20.96903 332 ft 0 kts 151°
2026-05-04 12:42 52.17085 20.96904 332 ft 1 kts 151°
2026-05-04 12:42 52.17061 20.96925 334 ft 7 kts 152°
2026-05-04 12:42 52.17000 20.96978 335 ft 12 kts 152°
2026-05-04 12:43 52.16930 20.97040 336 ft 11 kts 151°
2026-05-04 12:43 52.16860 20.97101 334 ft 11 kts 151°
2026-05-04 12:43 52.16792 20.97160 337 ft 11 kts 152°
2026-05-04 12:43 52.16724 20.97160 338 ft 11 kts 225°
2026-05-04 12:44 52.16678 20.97058 338 ft 11 kts 212°
2026-05-04 12:44 52.16607 20.97080 335 ft 11 kts 152°
2026-05-04 12:44 52.16540 20.97139 334 ft 12 kts 152°
2026-05-04 12:44 52.16415 20.97248 336 ft 27 kts 151°
2026-05-04 12:45 52.16253 20.97391 338 ft 26 kts 151°
2026-05-04 12:45 52.16100 20.97523 335 ft 24 kts 151°
2026-05-04 12:45 52.15960 20.97645 337 ft 23 kts 151°
2026-05-04 12:45 52.15852 20.97740 338 ft 14 kts 153°
2026-05-04 12:46 52.15826 20.97873 334 ft 14 kts 54°
2026-05-04 12:46 52.15900 20.97964 335 ft 13 kts 38°
2026-05-04 12:46 52.15942 20.98077 338 ft 13 kts 106°
2026-05-04 12:46 52.15914 20.98190 338 ft 8 kts 98°
2026-05-04 12:47 52.15946 20.98259 338 ft 8 kts 28°
2026-05-04 12:47 52.16007 20.98305 337 ft 12 kts 24°
2026-05-04 12:47 52.16088 20.98364 337 ft 13 kts 24°
2026-05-04 12:47 52.16168 20.98424 335 ft 13 kts 24°
2026-05-04 12:48 52.16243 20.98465 338 ft 10 kts 358°
2026-05-04 12:48 52.16287 20.98389 336 ft 9 kts 293°
2026-05-04 12:48 52.16278 20.98329 336 ft 6 kts 203°
2026-05-04 12:48 52.16235 20.98320 336 ft 7 kts 199°
2026-05-04 12:49 52.16182 20.98280 334 ft 10 kts 214°
2026-05-04 12:49 52.16162 20.98184 336 ft 10 kts 286°
2026-05-04 12:49 52.16177 20.98129 335 ft 0 kts 295°
2026-05-04 12:50 52.16221 20.97974 336 ft 49 kts 294°
2026-05-04 12:50 52.16479 20.97055 333 ft 127 kts 294°
2026-05-04 12:51 52.16936 20.95447 471 ft 177 kts 294°
2026-05-04 12:51 52.17453 20.93736 1614 ft 154 kts 290°
2026-05-04 12:51 52.17833 20.92313 2872 ft 127 kts 286°
2026-05-04 12:51 52.18153 20.90830 3273 ft 150 kts 268°
2026-05-04 12:52 52.18083 20.88991 3607 ft 179 kts 264°
2026-05-04 12:52 52.18014 20.86803 3867 ft 206 kts 265°
2026-05-04 12:52 52.17943 20.84324 4120 ft 231 kts 266°
2026-05-04 12:52 52.18112 20.81622 4551 ft 250 kts 281°
2026-05-04 12:53 52.18554 20.78815 5255 ft 260 kts 281°
2026-05-04 12:53 52.18980 20.75942 6194 ft 262 kts 281°
2026-05-04 12:53 52.19398 20.73033 7061 ft 266 kts 281°
2026-05-04 12:53 52.19596 20.70055 7906 ft 266 kts 260°
2026-05-04 12:54 52.19111 20.67152 8790 ft 267 kts 249°
2026-05-04 12:54 52.18467 20.64300 9664 ft 270 kts 248°
2026-05-04 12:54 52.17808 20.61408 10480 ft 274 kts 249°
2026-05-04 12:54 52.17148 20.58478 11242 ft 279 kts 249°
2026-05-04 12:55 52.16457 20.55393 11526 ft 303 kts 249°
2026-05-04 12:55 52.15711 20.52039 11726 ft 327 kts 250°
2026-05-04 12:55 52.15270 20.48280 11872 ft 353 kts 269°
2026-05-04 12:55 52.15421 20.44194 12244 ft 368 kts 272°
2026-05-04 12:56 52.15620 20.40009 12879 ft 373 kts 272°
2026-05-04 12:56 52.15818 20.35780 13621 ft 376 kts 272°
2026-05-04 12:56 52.16006 20.31520 14313 ft 378 kts 272°
2026-05-04 12:56 52.16186 20.27236 14992 ft 380 kts 272°
2026-05-04 12:57 52.16360 20.22928 15686 ft 382 kts 272°
2026-05-04 12:57 52.16529 20.18592 16348 ft 385 kts 272°
2026-05-04 12:57 52.16697 20.14227 16998 ft 387 kts 272°
2026-05-04 12:57 52.16863 20.09832 17645 ft 390 kts 272°
2026-05-04 12:58 52.17027 20.05470 18281 ft 392 kts 272°
2026-05-04 12:58 52.17195 20.00960 18839 ft 395 kts 272°
2026-05-04 12:58 52.17359 19.96534 19313 ft 399 kts 272°
2026-05-04 12:58 52.17524 19.91998 19785 ft 403 kts 272°
2026-05-04 12:59 52.17680 19.87409 20269 ft 407 kts 271°
2026-05-04 12:59 52.17515 19.82798 20737 ft 410 kts 262°
2026-05-04 12:59 52.17084 19.78200 21220 ft 413 kts 261°
2026-05-04 12:59 52.16612 19.73564 21669 ft 417 kts 261°
2026-05-04 13:00 52.16295 19.70402 21957 ft 419 kts 261°
2026-05-04 13:00 52.15838 19.65692 22390 ft 423 kts 261°
2026-05-04 13:00 52.15395 19.60928 22801 ft 427 kts 262°
2026-05-04 13:00 52.14961 19.56128 23216 ft 430 kts 262°
2026-05-04 13:01 52.14527 19.51293 23614 ft 434 kts 262°
2026-05-04 13:01 52.14099 19.46519 23945 ft 437 kts 262°
2026-05-04 13:01 52.13658 19.41621 23977 ft 436 kts 262°
2026-05-04 13:01 52.13214 19.36736 23992 ft 437 kts 262°
2026-05-04 13:02 52.12765 19.31845 24002 ft 437 kts 262°
2026-05-04 13:02 52.12308 19.26953 24003 ft 438 kts 261°
2026-05-04 13:02 52.11847 19.22055 24002 ft 438 kts 261°
2026-05-04 13:02 52.11383 19.17163 23999 ft 438 kts 261°
2026-05-04 13:03 52.10919 19.12275 23996 ft 438 kts 261°
2026-05-04 13:03 52.10452 19.07381 23993 ft 438 kts 261°
2026-05-04 13:03 52.09983 19.02481 23996 ft 438 kts 261°
2026-05-04 13:03 52.09514 18.97596 23993 ft 437 kts 261°
2026-05-04 13:04 52.09042 18.92713 23988 ft 437 kts 261°
2026-05-04 13:04 52.08570 18.87838 23993 ft 436 kts 261°
2026-05-04 13:04 52.08096 18.82967 23993 ft 436 kts 261°
2026-05-04 13:04 52.07621 18.78109 23908 ft 436 kts 261°
2026-05-04 13:05 52.07140 18.73202 23145 ft 437 kts 261°
2026-05-04 13:05 52.06666 18.68391 22520 ft 429 kts 261°
2026-05-04 13:05 52.06201 18.63704 21973 ft 421 kts 260°
2026-05-04 13:05 52.05736 18.59024 21406 ft 413 kts 260°
2026-05-04 13:06 52.05280 18.54458 20851 ft 406 kts 260°
2026-05-04 13:06 52.04836 18.50025 20313 ft 400 kts 260°
2026-05-04 13:06 52.04385 18.45542 19773 ft 394 kts 260°
2026-05-04 13:06 52.03951 18.41248 19264 ft 388 kts 259°
2026-05-04 13:07 52.03515 18.36950 18747 ft 383 kts 259°
2026-05-04 13:07 52.03084 18.32715 18237 ft 378 kts 259°
2026-05-04 13:07 52.02657 18.28538 17658 ft 373 kts 259°
2026-05-04 13:07 52.02234 18.24413 17141 ft 367 kts 259°
2026-05-04 13:08 52.01815 18.20340 16634 ft 365 kts 259°
2026-05-04 13:08 52.01397 18.16292 16117 ft 362 kts 259°
2026-05-04 13:08 52.00979 18.12253 15799 ft 361 kts 259°
2026-05-04 13:08 52.00567 18.08286 15654 ft 351 kts 259°
2026-05-04 13:09 52.00168 18.04456 15503 ft 338 kts 258°
2026-05-04 13:09 51.99885 18.00730 15358 ft 328 kts 265°
2026-05-04 13:09 51.99972 17.97092 15233 ft 319 kts 275°
2026-05-04 13:09 52.00336 17.93599 15116 ft 309 kts 277°
2026-05-04 13:10 52.00710 17.90222 14994 ft 299 kts 277°
2026-05-04 13:10 52.01064 17.86949 14879 ft 290 kts 276°
2026-05-04 13:10 52.01500 17.83762 14609 ft 291 kts 283°
2026-05-04 13:10 52.02146 17.80634 14331 ft 293 kts 285°
2026-05-04 13:11 52.02834 17.77516 14034 ft 294 kts 285°
2026-05-04 13:11 52.03518 17.74399 13727 ft 292 kts 285°
2026-05-04 13:11 52.04187 17.71294 13394 ft 290 kts 285°
2026-05-04 13:11 52.04833 17.68248 13068 ft 288 kts 284°
2026-05-04 13:12 52.05484 17.65137 12755 ft 286 kts 284°
2026-05-04 13:12 52.06119 17.62086 12458 ft 284 kts 284°
2026-05-04 13:12 52.06746 17.59054 12167 ft 283 kts 284°
2026-05-04 13:12 52.07375 17.56004 11866 ft 285 kts 284°
2026-05-04 13:13 52.08004 17.52935 11567 ft 286 kts 284°
2026-05-04 13:13 52.08631 17.49869 11251 ft 284 kts 284°
2026-05-04 13:13 52.09251 17.46832 10963 ft 283 kts 284°
2026-05-04 13:13 52.09868 17.43805 10665 ft 281 kts 284°
2026-05-04 13:14 52.10481 17.40791 10367 ft 280 kts 284°
2026-05-04 13:14 52.11089 17.37799 10164 ft 275 kts 284°
2026-05-04 13:14 52.11682 17.34882 10031 ft 268 kts 284°
2026-05-04 13:14 52.12257 17.32043 9797 ft 269 kts 284°
2026-05-04 13:15 52.12842 17.29148 9503 ft 269 kts 284°
2026-05-04 13:15 52.13422 17.26280 9302 ft 263 kts 284°
2026-05-04 13:15 52.13989 17.23471 9004 ft 259 kts 284°
2026-05-04 13:15 52.14555 17.20718 8630 ft 255 kts 289°
2026-05-04 13:16 52.15582 17.18374 8221 ft 260 kts 320°
2026-05-04 13:16 52.17219 17.17184 7849 ft 261 kts 350°
2026-05-04 13:16 52.19020 17.17331 7489 ft 260 kts 14°
2026-05-04 13:16 52.20738 17.18201 7144 ft 257 kts 18°
2026-05-04 13:17 52.22410 17.19214 6765 ft 255 kts 30°
2026-05-04 13:17 52.23657 17.21175 6408 ft 249 kts 63°
2026-05-04 13:17 52.24143 17.23803 6126 ft 240 kts 88°
2026-05-04 13:17 52.23958 17.26509 5855 ft 243 kts 107°
2026-05-04 13:18 52.23465 17.29158 5613 ft 246 kts 107°
2026-05-04 13:18 52.23445 17.31928 5329 ft 250 kts 71°
2026-05-04 13:18 52.24432 17.34208 5097 ft 249 kts 35°
2026-05-04 13:18 52.25967 17.35434 4886 ft 246 kts 18°
2026-05-04 13:19 52.27595 17.36304 4637 ft 246 kts 15°
2026-05-04 13:19 52.29267 17.36828 4353 ft 244 kts 353°
2026-05-04 13:19 52.30837 17.35980 4111 ft 237 kts 322°
2026-05-04 13:19 52.31945 17.34069 3922 ft 229 kts 297°
2026-05-04 13:20 52.32551 17.31717 3783 ft 222 kts 286°
2026-05-04 13:20 52.33020 17.29308 3662 ft 223 kts 285°
2026-05-04 13:20 52.33486 17.26875 3537 ft 226 kts 285°
2026-05-04 13:20 52.33955 17.24420 3420 ft 226 kts 285°
2026-05-04 13:21 52.34447 17.21987 3293 ft 224 kts 287°
2026-05-04 13:21 52.34970 17.19601 3160 ft 222 kts 286°
2026-05-04 13:21 52.35459 17.17215 3045 ft 222 kts 285°
2026-05-04 13:21 52.35927 17.14803 3019 ft 227 kts 284°
2026-05-04 13:22 52.36395 17.12344 2998 ft 223 kts 284°
2026-05-04 13:22 52.36843 17.10000 3001 ft 207 kts 284°
2026-05-04 13:22 52.37257 17.07842 2985 ft 192 kts 284°
2026-05-04 13:22 52.37651 17.05777 2982 ft 189 kts 284°
2026-05-04 13:23 52.38041 17.03736 2757 ft 185 kts 284°
2026-05-04 13:23 52.38420 17.01764 2517 ft 176 kts 283°
2026-05-04 13:23 52.38774 16.99925 2288 ft 163 kts 283°
2026-05-04 13:23 52.39095 16.98253 2092 ft 147 kts 282°
2026-05-04 13:24 52.39391 16.96707 1925 ft 144 kts 281°
2026-05-04 13:24 52.39688 16.95160 1718 ft 141 kts 281°
2026-05-04 13:24 52.39980 16.93638 1527 ft 140 kts 282°
2026-05-04 13:25 52.40565 16.90601 1157 ft 138 kts 283°
2026-05-04 13:25 52.40853 16.89092 986 ft 140 kts 284°
2026-05-04 13:25 52.41151 16.87551 801 ft 143 kts 284°
2026-05-04 13:25 52.41454 16.85991 639 ft 144 kts 284°
2026-05-04 13:26 52.41761 16.84409 410 ft 146 kts 283°
2026-05-04 13:26 52.42052 16.82888 302 ft 128 kts 283°
2026-05-04 13:26 52.42241 16.81875 309 ft 51 kts 288°
2026-05-04 13:26 52.42298 16.81581 311 ft 11 kts 282°
2026-05-04 13:27 52.42302 16.81482 312 ft 6 kts 270°
2026-05-04 13:27 52.42298 16.81412 312 ft 7 kts 261°
2026-05-04 13:27 52.42290 16.81331 312 ft 7 kts 261°
2026-05-04 13:27 52.42283 16.81264 312 ft 6 kts 259°
2026-05-04 13:28 52.42274 16.81199 312 ft 6 kts 257°
2026-05-04 13:28 52.42233 16.81162 312 ft 10 kts 163°
2026-05-04 13:28 52.42198 16.81263 311 ft 12 kts 108°
2026-05-04 13:28 52.42164 16.81438 311 ft 19 kts 108°
2026-05-04 13:29 52.42123 16.81653 310 ft 20 kts 107°
2026-05-04 13:29 52.42082 16.81863 309 ft 19 kts 107°
2026-05-04 13:29 52.42043 16.82066 308 ft 18 kts 107°
2026-05-04 13:29 52.42006 16.82259 307 ft 18 kts 107°
2026-05-04 13:30 52.41966 16.82464 306 ft 21 kts 107°
2026-05-04 13:30 52.41920 16.82706 305 ft 22 kts 107°
2026-05-04 13:30 52.41888 16.82870 305 ft 13 kts 109°
2026-05-04 13:30 52.41810 16.82896 303 ft 14 kts 196°
2026-05-04 13:31 52.41722 16.82851 303 ft 13 kts 197°
2026-05-04 13:31 52.41656 16.82921 302 ft 13 kts 104°
2026-05-04 13:31 52.41640 16.83039 301 ft 6 kts 102°
2026-05-04 13:31 52.41616 16.83073 303 ft 5 kts 189°
2026-05-04 13:32 52.41580 16.83063 302 ft 3 kts 188°
2026-05-04 13:32 52.41578 16.83062 303 ft 0 kts 188°